EHI
0 0 0 0 0 0 0 0 0 0 1 1 0 2 7 10 8 9 14 17 18 20 21 18 17 19 18 16 15 14 13 13 13 13 12 12 11 10 10 9 9 10 11 10
0 0 1 1 1 1 1 1 1 1 1 1 1 3 7 10 9 9 12 15 17 18 18 18 18 18 18 17 16 15 13 12 12 12 11 11 11 10 10 10 10 11 11 10
0 0 1 2 2 2 2 2 1 1 1 1 2 5 8 9 10 10 11 14 16 17 17 18 17 17 16 15 15 13 12 11 11 11 11 11 11 11 10 9 10 10 10 9
0 0 1 2 2 2 1 2 2 2 1 1 4 6 6 6 8 11 14 16 18 18 19 18 16 16 14 12 11 11 11 11 11 11 10 10 11 12 11 10 10 10 9 9
0 0 0 1 1 1 1 3 5 5 3 2 4 4 2 2 4 10 16 20 21 20 20 19 18 16 14 11 10 10 11 11 11 11 10 10 11 13 12 11 11 9 8 9
0 0 0 0 0 0 2 5 9 9 5 3 3 3 3 2 4 11 19 23 21 19 20 20 19 18 16 13 10 10 10 10 11 11 10 9 11 11 11 11 10 8 8 9
0 0 0 1 1 1 3 8 12 12 9 7 6 5 5 5 8 15 22 23 19 18 19 19 18 19 17 13 10 9 9 8 9 10 9 8 10 10 10 9 8 7 7 9
0 0 1 2 2 3 7 11 12 12 12 12 11 8 5 6 10 18 22 21 18 18 19 18 17 17 16 12 9 8 8 7 8 9 8 7 8 9 8 7 7 6 7 8
1 1 1 2 2 4 7 9 8 8 12 15 13 10 7 7 12 18 20 19 17 17 17 16 14 14 13 9 7 8 8 7 7 6 5 4 6 6 7 7 7 6 7 7
2 1 1 1 1 2 3 3 4 5 9 11 12 12 12 12 14 18 19 19 18 15 14 14 12 11 10 8 7 8 8 7 5 3 2 3 4 5 6 7 6 6 6 6
4 3 2 1 0 0 0 1 2 4 5 6 9 13 16 17 16 16 19 20 19 15 12 11 10 9 8 8 9 9 7 5 3 1 1 2 3 3 4 5 4 4 5 5
5 4 2 1 0 0 0 0 1 2 2 2 6 12 17 17 16 15 17 19 18 15 12 10 9 7 7 8 9 9 6 4 2 1 1 2 2 1 1 1 1 1 2 3
3 3 2 1 0 0 0 0 0 0 0 1 3 9 14 16 16 15 14 15 14 11 9 8 7 6 6 7 7 6 5 3 1 0 0 1 1 0 0 0 0 0 0 1
1 1 1 1 0 0 0 0 0 0 0 1 3 6 10 14 15 12 10 8 7 6 6 7 6 5 6 6 5 4 3 2 1 0 0 0 0 0 0 0 0 0 0 0
0 0 0 0 0 0 0 0 0 0 0 1 4 6 8 11 12 10 7 4 3 3 4 5 5 6 7 6 5 4 2 1 0 0 0 0 0 0 0 0 0 0 0 0
0 0 0 0 0 0 0 0 0 0 0 1 3 4 6 8 9 8 6 4 2 2 3 5 5 6 7 6 5 3 1 0 0 0 0 0 0 0 0 0 0 0 0 0
0 0 0 0 0 0 0 0 0 0 0 1 2 3 4 5 7 8 7 6 6 6 6 6 6 6 5 5 4 2 0 0 0 0 0 0 0 0 0 0 0 0 0 0
0 0 0 0 0 0 0 0 0 0 0 1 2 3 3 4 6 6 6 7 8 8 8 7 5 5 4 3 2 1 0 0 0 0 0 0 0 0 0 0 0 0 0 0
0 0 0 0 0 0 0 0 0 1 1 1 2 3 3 3 4 4 4 5 6 7 7 6 4 3 3 1 1 1 0 0 0 0 0 0 0 0 0 0 0 1 1 1
0 0 0 0 0 0 0 0 0 1 1 2 2 3 3 3 3 2 2 3 4 5 6 4 2 2 2 1 0 0 0 0 0 0 0 0 0 1 1 0 1 2 2 2
0 0 0 0 0 0 0 0 0 0 1 3 3 3 4 4 3 2 2 2 3 4 4 2 1 1 1 0 0 0 0 0 0 0 0 0 1 2 2 1 1 2 2 2
0 0 0 0 0 0 0 0 0 0 1 3 4 5 5 4 2 2 1 1 2 2 1 0 0 0 0 0 0 0 0 0 0 0 0 0 1 2 2 1 1 1 1 1
1 0 1 1 0 0 0 0 0 0 0 2 4 6 6 4 2 1 0 1 1 0 0 0 0 0 0 0 0 0 0 0 0 0 0 0 1 1 1 1 0 0 0 0
2 2 2 2 1 0 0 0 0 1 1 1 3 4 4 2 1 0 0 0 0 0 0 0 0 0 0 0 0 0 0 0 0 0 0 0 0 0 0 0 0 0 0 0
3 3 3 3 2 1 0 0 0 1 1 1 1 1 1 0 0 0 0 0 0 0 0 0 0 0 0 0 0 0 0 0 0 0 0 0 0 0 0 0 0 0 0 0
4 4 3 3 2 1 0 0 0 1 1 0 0 0 0 0 0 0 0 0 0 0 0 0 0 0 0 0 0 0 0 0 0 0 0 0 0 0 0 0 0 0 0 0
4 4 3 2 1 1 0 0 0 0 0 0 0 0 0 0 0 0 0 0 0 0 0 0 0 0 0 0 0 0 0 0 0 0 0 0 0 0 0 0 0 0 0 0
Wind_Speed
10 10 9 9 8 8 7 7 6 3 3 3 2 3 4 5 5 6 6 5 5 5 4 3 3 3 2 2 2 2 2 2 3 3 3 2 2 2 3 3 3 2 2 2
11 10 11 9 9 8 7 6 5 2 1 0 3 3 4 4 5 6 5 5 5 5 4 3 3 2 2 2 2 1 2 2 3 3 3 2 2 2 2 2 2 1 1 0
9 9 11 9 5 4 4 4 3 2 2 1 2 3 3 3 4 5 5 4 4 4 3 2 2 2 1 1 1 2 2 2 2 3 3 3 3 2 2 2 2 2 2 2
8 9 10 4 3 2 2 2 1 1 2 2 3 4 4 3 2 3 4 3 3 3 3 2 2 2 1 1 1 1 2 2 2 2 3 2 2 2 2 2 2 2 2 2
5 7 6 3 2 4 2 1 2 1 1 2 4 4 4 4 3 3 4 3 3 3 3 2 2 2 1 1 2 2 2 2 2 2 2 2 2 2 1 2 2 2 2 2
6 7 5 2 4 4 2 1 4 3 2 2 2 0 3 4 3 4 4 4 3 3 4 3 2 2 2 2 2 2 2 2 2 2 2 2 2 2 2 2 3 3 3 3
8 7 2 4 5 5 2 2 5 4 3 4 3 3 3 3 4 4 4 4 4 4 3 3 3 2 2 2 2 2 2 1 1 2 2 2 2 2 2 3 3 3 3 3
6 6 2 6 4 4 4 4 4 5 4 4 4 3 3 2 4 4 4 4 4 3 3 3 3 2 2 2 2 2 2 2 2 2 3 2 2 2 3 3 3 3 4 4
0 0 4 6 6 6 4 4 4 4 4 3 2 2 2 2 3 4 4 4 3 3 3 2 2 2 2 2 2 2 1 1 1 2 2 2 3 3 3 3 3 3 3 4
1 2 2 5 5 5 5 4 4 4 4 4 2 2 2 1 2 3 3 3 3 3 3 2 2 2 1 1 1 2 1 1 2 2 3 3 3 3 3 3 2 3 3 2
0 1 2 4 4 3 3 4 4 3 3 3 3 2 1 1 1 2 3 3 3 3 2 2 2 1 1 0 0 1 1 2 2 3 3 2 3 2 2 1 1 1 1 2
3 3 2 2 4 4 3 3 3 3 3 3 2 2 2 1 1 1 2 2 2 2 2 2 1 1 1 0 0 1 1 2 2 2 2 3 3 2 0 1 2 3 2 1
4 5 4 4 4 4 4 4 4 3 3 3 3 2 2 2 1 0 1 2 2 2 2 2 1 2 1 1 1 1 2 2 2 2 2 3 3 2 2 1 2 2 3 2
5 5 5 5 5 5 5 5 4 3 4 3 2 1 1 1 1 0 0 1 1 2 2 2 2 2 1 1 1 2 3 3 3 2 2 3 3 2 2 2 3 3 4 6
5 5 4 5 5 6 5 5 5 4 4 4 2 1 1 1 1 1 1 0 0 1 2 2 2 1 2 2 2 3 4 2 3 3 3 3 3 3 2 2 2 2 2 3
5 6 5 5 5 5 5 5 5 5 5 4 2 1 1 1 1 1 1 1 1 1 1 1 1 1 2 2 3 3 3 4 4 4 4 3 3 3 3 3 2 2 2 2
4 5 5 6 5 4 5 5 5 4 4 4 2 1 1 1 1 1 1 1 1 1 0 1 1 2 2 3 3 4 4 4 6 5 4 3 3 3 3 3 3 2 2 1
4 4 4 4 5 5 5 5 5 5 4 4 3 1 1 0 1 1 2 2 1 1 0 1 1 3 3 3 3 4 4 4 3 4 3 3 3 3 4 4 3 2 1 2
5 4 4 4 5 5 5 5 5 5 5 4 3 1 1 1 1 1 1 2 1 2 1 1 1 3 4 3 4 5 5 4 3 3 3 3 3 3 3 3 3 2 1 1
5 6 6 6 6 5 5 6 6 5 5 4 3 3 2 2 2 1 1 2 1 1 0 1 2 3 4 3 4 6 5 4 4 3 3 2 2 2 2 2 2 2 2 1
4 5 6 6 6 5 5 5 5 5 5 4 3 3 3 2 2 2 2 2 1 2 1 1 2 3 3 3 5 6 5 4 4 2 2 2 2 2 2 3 3 2 2 2
4 4 5 5 5 5 5 5 5 5 5 4 3 3 3 3 3 2 2 2 2 2 2 2 2 3 4 5 5 6 4 4 3 2 2 2 2 2 2 2 3 3 2 2
4 4 4 5 5 4 4 4 4 4 4 4 3 3 3 3 3 2 2 2 2 1 3 3 2 2 4 5 5 4 4 3 3 2 2 2 2 2 1 2 2 2 2 3
4 4 4 5 5 4 4 4 3 3 3 3 2 2 2 3 2 2 2 2 1 1 2 2 2 3 5 4 3 3 3 3 3 3 3 2 2 2 2 2 2 2 2 3
4 4 4 4 4 4 4 3 2 2 2 2 2 2 2 2 2 2 2 2 1 2 3 2 3 4 4 4 3 3 3 3 4 4 3 3 3 2 3 3 3 2 2 2
4 3 2 3 3 3 3 3 2 2 3 3 2 2 2 2 2 2 2 2 2 3 4 3 2 3 3 3 2 3 3 2 2 3 4 3 3 3 3 3 4 3 3 3
3 3 2 2 2 3 3 3 3 3 3 3 3 2 2 2 2 3 3 3 2 3 3 3 3 3 3 2 1 1 2 3 3 3 3 3 3 3 3 4 3 3 3 3
Wind_Direction
273 273 257 250 246 241 241 256 263 233 240 212 183 144 131 130 126 128 131 132 130 135 136 143 146 151 160 171 163 157 162 163 159 165 175 175 186 206 200 211 210 196 212 216
273 270 274 266 253 240 246 252 255 226 267 166 121 118 120 131 141 145 149 147 140 137 137 139 141 155 160 167 152 158 185 184 169 163 165 172 187 211 207 209 215 205 211 215
278 280 277 265 262 250 260 271 259 245 210 195 120 108 118 126 143 151 148 139 130 131 138 136 133 136 156 166 155 178 199 195 177 178 187 194 205 204 200 212 211 214 211 183
261 263 260 263 293 253 261 300 358 118 161 177 103 97 103 122 138 140 135 132 130 140 142 138 139 138 138 151 170 189 201 219 207 198 197 194 197 207 206 210 214 209 215 195
264 264 255 259 296 304 287 331 42 44 44 104 97 108 110 104 107 118 124 119 126 140 143 141 147 145 156 178 191 210 216 218 221 206 193 199 207 208 208 215 222 214 209 204
253 264 261 294 322 310 261 178 24 28 22 54 84 81 94 89 100 108 112 117 124 138 135 135 142 146 180 197 216 232 242 237 225 221 210 208 212 216 224 228 228 230 217 211
252 257 280 336 329 307 271 32 8 24 18 33 43 54 69 85 101 110 115 124 133 133 138 146 154 159 184 199 221 249 256 249 236 240 233 214 206 223 230 234 230 237 229 224
252 252 260 1 5 25 34 35 30 30 28 36 57 79 90 96 119 125 129 136 135 132 144 148 158 171 189 213 239 247 257 258 248 238 248 228 203 226 233 243 239 241 241 235
323 99 69 50 54 49 37 29 26 23 17 15 45 49 64 99 132 137 142 141 139 147 147 152 165 178 198 224 248 250 254 267 253 241 242 225 210 220 234 239 251 251 241 240
140 127 95 73 63 43 28 15 20 20 13 6 3 9 28 48 136 142 148 144 143 156 166 166 171 185 204 218 232 252 258 268 263 248 231 221 226 218 216 233 246 265 272 277
43 35 49 48 38 21 9 7 12 15 4 354 357 354 26 36 108 137 147 154 161 171 172 172 163 166 169 184 210 261 272 266 265 260 246 227 219 235 238 234 205 258 307 331
2 356 326 337 346 351 355 353 348 349 352 348 344 340 354 357 40 132 152 154 157 162 168 179 182 174 148 162 212 258 258 261 256 258 259 248 226 209 56 189 186 184 184 203
353 340 344 354 350 2 3 353 344 346 337 324 332 338 334 337 30 69 162 161 170 178 182 175 164 155 156 200 239 241 252 259 263 263 253 260 253 230 207 198 226 231 218 205
349 346 348 349 349 2 352 347 354 356 344 334 334 353 358 350 347 315 165 182 191 192 188 183 177 166 176 207 224 248 252 243 263 262 268 270 269 252 226 216 213 218 218 215
339 340 335 343 348 355 353 352 348 350 352 352 9 25 8 344 328 331 343 241 179 209 207 203 197 194 210 225 232 241 252 247 259 269 264 265 266 260 255 244 234 217 192 197
322 330 338 336 337 341 337 336 334 336 340 344 346 1 338 320 320 347 345 302 223 235 268 259 237 238 232 245 253 238 239 242 254 271 268 263 268 273 269 263 263 241 226 206
314 321 324 324 320 318 316 316 318 319 322 326 333 350 334 322 349 345 318 312 302 290 298 323 302 276 247 241 257 259 247 228 225 251 268 276 281 287 286 278 277 276 255 202
304 296 302 312 313 309 306 309 311 316 315 319 333 298 226 258 291 305 308 309 299 288 294 292 316 305 282 258 265 271 265 257 242 252 262 271 279 279 282 284 287 283 263 181
338 339 339 335 332 330 326 322 322 325 326 331 343 328 308 293 290 284 283 281 268 258 270 302 326 301 302 300 285 273 269 266 258 253 262 263 259 270 286 294 299 299 283 230
352 350 354 352 349 340 336 337 338 339 338 339 353 355 341 330 315 290 279 277 285 309 323 299 265 277 283 290 289 278 277 275 268 264 262 265 276 283 286 298 314 326 332 341
336 340 346 340 335 337 340 339 337 340 345 348 357 358 347 345 336 340 314 302 338 356 332 259 260 274 282 302 282 277 278 281 280 274 279 293 312 313 318 333 335 339 356 346
326 332 328 325 329 332 335 335 332 334 340 341 350 357 354 349 334 323 312 322 333 5 303 269 267 290 297 291 277 282 288 292 293 296 305 307 309 312 330 338 330 337 344 331
320 322 325 323 318 316 322 324 321 326 330 334 338 339 330 317 308 308 306 317 324 325 303 317 325 295 289 284 285 294 302 306 306 302 311 319 313 322 325 315 316 326 331 332
325 323 321 316 311 308 312 307 310 314 315 319 326 328 317 312 319 320 326 352 4 272 295 339 300 280 282 279 291 303 308 308 312 316 319 319 320 329 335 332 333 334 340 333
321 315 313 315 316 319 319 321 326 315 306 319 325 338 320 313 309 312 317 323 311 278 287 262 243 253 269 289 300 309 325 343 342 335 333 332 334 339 346 347 341 339 348 345
317 305 314 312 321 313 310 313 319 321 327 330 330 331 322 320 317 312 296 282 286 280 282 283 271 252 262 276 295 316 321 323 334 341 349 345 345 345 349 349 346 352 5 6
310 313 311 309 306 303 306 310 316 320 324 327 326 319 308 309 314 308 302 299 293 271 282 289 283 276 269 270 295 328 332 337 349 351 346 347 350 349 352 356 1 3 4 18